Location: Saint-Maurice-d�Ard�che
(44.5216°N, 4.4002°E)
Time: 22:45:06
(UTC+00:00)

Cosmos 1656 Rocket - Pass Details

Date: 30 March 2020
Orbit: 796 x 846 km, 71.1° (Epoch: 05 June)

Event Time Altitude Azimuth Distance (km) Brightness Sun altitude
Rises 20:54:32 0° 334° (NNW) 3,413 7.8 -27.9°
Reaches altitude 10° 20:57:00 10° 335° (NNW) 2,471 6.9 -28.3°
Enters shadow 21:02:18 78° 333° (NNW) 860 3.7 -29.0°
